Year,Month,Day,Hour,Minute,Value (Times are PST for temperature in C)
2016,09,21,00,00,9.60
2016,09,21,00,01,9.60
2016,09,21,00,02,9.60
2016,09,21,00,03,9.60
2016,09,21,00,04,9.60
2016,09,21,00,05,9.60
2016,09,21,00,06,9.60
2016,09,21,00,07,9.60
2016,09,21,00,08,9.50
2016,09,21,00,09,9.50
2016,09,21,00,10,9.50
2016,09,21,00,11,9.50
2016,09,21,00,12,9.50
2016,09,21,00,13,9.50
2016,09,21,00,14,9.50
2016,09,21,00,15,9.50
2016,09,21,00,16,9.50
2016,09,21,00,17,9.50
2016,09,21,00,18,9.50
2016,09,21,00,19,9.50
2016,09,21,00,20,9.40
2016,09,21,00,21,9.40
2016,09,21,00,22,9.40
2016,09,21,00,23,9.40
2016,09,21,00,24,9.40
2016,09,21,00,25,9.40
2016,09,21,00,26,9.40
2016,09,21,00,27,9.40
2016,09,21,00,28,9.40
2016,09,21,00,29,9.40
2016,09,21,00,30,9.40
2016,09,21,00,31,9.40
2016,09,21,00,32,9.40
2016,09,21,00,33,9.40
2016,09,21,00,34,9.40
2016,09,21,00,35,9.40
2016,09,21,00,36,9.40
2016,09,21,00,37,9.40
2016,09,21,00,38,9.40
2016,09,21,00,39,9.40
2016,09,21,00,40,9.40
2016,09,21,00,41,9.40
2016,09,21,00,42,9.40
2016,09,21,00,43,9.40
2016,09,21,00,44,9.40
2016,09,21,00,45,9.40
2016,09,21,00,46,9.30
2016,09,21,00,47,9.30
2016,09,21,00,48,9.30
2016,09,21,00,49,9.30
2016,09,21,00,50,9.30
2016,09,21,00,51,9.20
2016,09,21,00,52,9.20
2016,09,21,00,53,9.20
2016,09,21,00,54,9.20
2016,09,21,00,55,9.20
2016,09,21,00,56,9.20
2016,09,21,00,57,9.20
2016,09,21,00,58,9.20
2016,09,21,00,59,9.20
2016,09,21,01,00,9.20
2016,09,21,01,01,9.20
2016,09,21,01,02,9.20
2016,09,21,01,03,9.20
2016,09,21,01,04,9.20
2016,09,21,01,05,9.20
2016,09,21,01,06,9.20
2016,09,21,01,07,9.10
2016,09,21,01,08,9.10
2016,09,21,01,09,9.10
2016,09,21,01,10,9.10
2016,09,21,01,11,9.10
2016,09,21,01,12,9.10
2016,09,21,01,13,9.00
2016,09,21,01,14,9.00
2016,09,21,01,15,9.00
2016,09,21,01,16,9.00
2016,09,21,01,17,9.00
2016,09,21,01,18,9.00
2016,09,21,01,19,9.00
2016,09,21,01,20,9.00
2016,09,21,01,21,8.90
2016,09,21,01,22,8.90
2016,09,21,01,23,8.90
2016,09,21,01,24,8.90
2016,09,21,01,25,8.90
2016,09,21,01,26,8.90
2016,09,21,01,27,8.80
2016,09,21,01,28,8.80
2016,09,21,01,29,8.80
2016,09,21,01,30,8.80
2016,09,21,01,31,8.80
2016,09,21,01,32,8.80
2016,09,21,01,33,8.80
2016,09,21,01,34,8.80
2016,09,21,01,35,8.80
2016,09,21,01,36,8.80
2016,09,21,01,37,8.80
2016,09,21,01,38,8.80
2016,09,21,01,39,8.80
2016,09,21,01,40,8.70
2016,09,21,01,41,8.70
2016,09,21,01,42,8.70
2016,09,21,01,43,8.70
2016,09,21,01,44,8.70
2016,09,21,01,45,8.70
2016,09,21,01,46,8.70
2016,09,21,01,47,8.70
2016,09,21,01,48,8.70
2016,09,21,01,49,8.70
2016,09,21,01,50,8.70
2016,09,21,01,51,8.70
2016,09,21,01,52,8.70
2016,09,21,01,53,8.70
2016,09,21,01,54,8.70
2016,09,21,01,55,8.70
2016,09,21,01,56,8.70
2016,09,21,01,57,8.70
2016,09,21,01,58,8.70
2016,09,21,01,59,8.70
2016,09,21,02,00,8.70
2016,09,21,02,01,8.70
2016,09,21,02,02,8.60
2016,09,21,02,03,8.60
2016,09,21,02,04,8.60
2016,09,21,02,05,8.60
2016,09,21,02,06,8.60
2016,09,21,02,07,8.60
2016,09,21,02,08,8.60
2016,09,21,02,09,8.50
2016,09,21,02,10,8.50
2016,09,21,02,11,8.50
2016,09,21,02,12,8.50
2016,09,21,02,13,8.50
2016,09,21,02,14,8.50
2016,09,21,02,15,8.50
2016,09,21,02,16,8.50
2016,09,21,02,17,8.40
2016,09,21,02,18,8.40
2016,09,21,02,19,8.40
2016,09,21,02,20,8.40
2016,09,21,02,21,8.40
2016,09,21,02,22,8.40
2016,09,21,02,23,8.40
2016,09,21,02,24,8.40
2016,09,21,02,25,8.40
2016,09,21,02,26,8.40
2016,09,21,02,27,8.30
2016,09,21,02,28,8.30
2016,09,21,02,29,8.30
2016,09,21,02,30,8.30
2016,09,21,02,31,8.30
2016,09,21,02,32,8.30
2016,09,21,02,33,8.30
2016,09,21,02,34,8.30
2016,09,21,02,35,8.30
2016,09,21,02,36,8.30
2016,09,21,02,37,8.30
2016,09,21,02,38,8.30
2016,09,21,02,39,8.30
2016,09,21,02,40,8.30
2016,09,21,02,41,8.30
2016,09,21,02,42,8.30
2016,09,21,02,43,8.20
2016,09,21,02,44,8.20
2016,09,21,02,45,8.20
2016,09,21,02,46,8.20
2016,09,21,02,47,8.20
2016,09,21,02,48,8.20
2016,09,21,02,49,8.20
2016,09,21,02,50,8.20
2016,09,21,02,51,8.20
2016,09,21,02,52,8.20
2016,09,21,02,53,8.20
2016,09,21,02,54,8.20
2016,09,21,02,55,8.20
2016,09,21,02,56,8.20
2016,09,21,02,57,8.20
2016,09,21,02,58,8.20
2016,09,21,02,59,8.20
2016,09,21,03,00,8.20
2016,09,21,03,01,8.20
2016,09,21,03,02,8.20
2016,09,21,03,03,8.20
2016,09,21,03,04,8.20
2016,09,21,03,05,8.10
2016,09,21,03,06,8.10
2016,09,21,03,07,8.10
2016,09,21,03,08,8.10
2016,09,21,03,09,8.00
2016,09,21,03,10,8.00
2016,09,21,03,11,8.00
2016,09,21,03,12,8.00
2016,09,21,03,13,8.00
2016,09,21,03,14,8.00
2016,09,21,03,15,8.00
2016,09,21,03,16,8.00
2016,09,21,03,17,8.00
2016,09,21,03,18,8.00
2016,09,21,03,19,8.00
2016,09,21,03,20,8.00
2016,09,21,03,21,8.00
2016,09,21,03,22,8.00
2016,09,21,03,23,8.00
2016,09,21,03,24,7.90
2016,09,21,03,25,7.90
2016,09,21,03,26,7.90
2016,09,21,03,27,7.90
2016,09,21,03,28,7.90
2016,09,21,03,29,7.90
2016,09,21,03,30,7.90
2016,09,21,03,31,7.90
2016,09,21,03,32,7.80
2016,09,21,03,33,7.80
2016,09,21,03,34,7.80
2016,09,21,03,35,7.80
2016,09,21,03,36,7.80
2016,09,21,03,37,7.80
2016,09,21,03,38,7.80
2016,09,21,03,39,7.80
2016,09,21,03,40,7.80
2016,09,21,03,41,7.80
2016,09,21,03,42,7.80
2016,09,21,03,43,7.80
2016,09,21,03,44,7.80
2016,09,21,03,45,7.80
2016,09,21,03,46,7.80
2016,09,21,03,47,7.80
2016,09,21,03,48,7.80
2016,09,21,03,49,7.80
2016,09,21,03,50,7.80
2016,09,21,03,51,7.80
2016,09,21,03,52,7.80
2016,09,21,03,53,7.80
2016,09,21,03,54,7.80
2016,09,21,03,55,7.80
2016,09,21,03,56,7.80
2016,09,21,03,57,7.80
2016,09,21,03,58,7.80
2016,09,21,03,59,7.70
2016,09,21,04,00,7.70
2016,09,21,04,01,7.70
2016,09,21,04,02,7.70
2016,09,21,04,03,7.70
2016,09,21,04,04,7.70
2016,09,21,04,05,7.70
2016,09,21,04,06,7.60
2016,09,21,04,07,7.60
2016,09,21,04,08,7.60
2016,09,21,04,09,7.60
2016,09,21,04,10,7.60
2016,09,21,04,11,7.60
2016,09,21,04,12,7.50
2016,09,21,04,13,7.50
2016,09,21,04,14,7.50
2016,09,21,04,15,7.50
2016,09,21,04,16,7.50
2016,09,21,04,17,7.50
2016,09,21,04,18,7.50
2016,09,21,04,19,7.50
2016,09,21,04,20,7.50
2016,09,21,04,21,7.50
2016,09,21,04,22,7.50
2016,09,21,04,23,7.50
2016,09,21,04,24,7.50
2016,09,21,04,25,7.50
2016,09,21,04,26,7.50
2016,09,21,04,27,7.50
2016,09,21,04,28,7.50
2016,09,21,04,29,7.50
2016,09,21,04,30,7.50
2016,09,21,04,31,7.40
2016,09,21,04,32,7.40
2016,09,21,04,33,7.40
2016,09,21,04,34,7.40
2016,09,21,04,35,7.50
2016,09,21,04,36,7.50
2016,09,21,04,37,7.50
2016,09,21,04,38,7.40
2016,09,21,04,39,7.40
2016,09,21,04,40,7.40
2016,09,21,04,41,7.40
2016,09,21,04,42,7.40
2016,09,21,04,43,7.40
2016,09,21,04,44,7.40
2016,09,21,04,45,7.40
2016,09,21,04,46,7.40
2016,09,21,04,47,7.30
2016,09,21,04,48,7.30
2016,09,21,04,49,7.30
2016,09,21,04,50,7.30
2016,09,21,04,51,7.30
2016,09,21,04,52,7.30
2016,09,21,04,53,7.30
2016,09,21,04,54,7.30
2016,09,21,04,55,7.30
2016,09,21,04,56,7.30
2016,09,21,04,57,7.30
2016,09,21,04,58,7.30
2016,09,21,04,59,7.30
2016,09,21,05,00,7.30
2016,09,21,05,01,7.30
2016,09,21,05,02,7.30
2016,09,21,05,03,7.30
2016,09,21,05,04,7.30
2016,09,21,05,05,7.30
2016,09,21,05,06,7.30
2016,09,21,05,07,7.30
2016,09,21,05,08,7.30
2016,09,21,05,09,7.30
2016,09,21,05,10,7.30
2016,09,21,05,11,7.30
2016,09,21,05,12,7.30
2016,09,21,05,13,7.30
2016,09,21,05,14,7.30
2016,09,21,05,15,7.30
2016,09,21,05,16,7.30
2016,09,21,05,17,7.30
2016,09,21,05,18,7.30
2016,09,21,05,19,7.20
2016,09,21,05,20,7.20
2016,09,21,05,21,7.20
2016,09,21,05,22,7.20
2016,09,21,05,23,7.20
2016,09,21,05,24,7.20
2016,09,21,05,25,7.10
2016,09,21,05,26,7.10
2016,09,21,05,27,7.10
2016,09,21,05,28,7.10
2016,09,21,05,29,7.10
2016,09,21,05,30,7.10
2016,09,21,05,31,7.10
2016,09,21,05,32,7.10
2016,09,21,05,33,7.10
2016,09,21,05,34,7.10
2016,09,21,05,35,7.10
2016,09,21,05,36,7.10
2016,09,21,05,37,7.00
2016,09,21,05,38,7.00
2016,09,21,05,39,7.00
2016,09,21,05,40,7.00
2016,09,21,05,41,7.00
2016,09,21,05,42,7.00
2016,09,21,05,43,7.10
2016,09,21,05,44,7.10
2016,09,21,05,45,7.10
2016,09,21,05,46,7.10
2016,09,21,05,47,7.10
2016,09,21,05,48,7.00
2016,09,21,05,49,7.00
2016,09,21,05,50,7.00
2016,09,21,05,51,7.00
2016,09,21,05,52,7.00
2016,09,21,05,53,7.00
2016,09,21,05,54,7.00
2016,09,21,05,55,7.00
2016,09,21,05,56,7.00
2016,09,21,05,57,7.00
2016,09,21,05,58,7.00
2016,09,21,05,59,7.00
2016,09,21,06,00,7.00
2016,09,21,06,01,7.00
2016,09,21,06,02,7.00
2016,09,21,06,03,7.00
2016,09,21,06,04,7.00
2016,09,21,06,05,7.00
2016,09,21,06,06,7.00
2016,09,21,06,07,7.00
2016,09,21,06,08,7.00
2016,09,21,06,09,7.00
2016,09,21,06,10,7.00
2016,09,21,06,11,7.00
2016,09,21,06,12,7.00
2016,09,21,06,13,6.90
2016,09,21,06,14,6.90
2016,09,21,06,15,6.90
2016,09,21,06,16,6.90
2016,09,21,06,17,6.90
2016,09,21,06,18,6.90
2016,09,21,06,19,6.90
2016,09,21,06,20,6.90
2016,09,21,06,21,6.90
2016,09,21,06,22,6.90
2016,09,21,06,23,6.90
2016,09,21,06,24,6.80
2016,09,21,06,25,6.80
2016,09,21,06,26,6.80
2016,09,21,06,27,6.80
2016,09,21,06,28,6.80
2016,09,21,06,29,6.80
2016,09,21,06,30,6.80
2016,09,21,06,31,6.80
2016,09,21,06,32,6.80
2016,09,21,06,33,6.80
2016,09,21,06,34,6.80
2016,09,21,06,35,6.80
2016,09,21,06,36,6.80
2016,09,21,06,37,6.80
2016,09,21,06,38,6.80
2016,09,21,06,39,6.80
2016,09,21,06,40,6.80
2016,09,21,06,41,6.80
2016,09,21,06,42,6.80
2016,09,21,06,43,6.80
2016,09,21,06,44,6.80
2016,09,21,06,45,6.80
2016,09,21,06,46,6.80
2016,09,21,06,47,6.80
2016,09,21,06,48,6.80
2016,09,21,06,49,6.80
2016,09,21,06,50,6.80
2016,09,21,06,51,6.80
2016,09,21,06,52,6.80
2016,09,21,06,53,6.80
2016,09,21,06,54,6.80
2016,09,21,06,55,6.80
2016,09,21,06,56,6.80
2016,09,21,06,57,6.80
2016,09,21,06,58,6.80
2016,09,21,06,59,6.80
2016,09,21,07,00,6.80
2016,09,21,07,01,6.80
2016,09,21,07,02,6.80
2016,09,21,07,03,6.80
2016,09,21,07,04,6.80
2016,09,21,07,05,6.80
2016,09,21,07,06,6.80
2016,09,21,07,07,6.80
2016,09,21,07,08,6.80
2016,09,21,07,09,6.80
2016,09,21,07,10,6.80
2016,09,21,07,11,6.80
2016,09,21,07,12,6.80
2016,09,21,07,13,6.80
2016,09,21,07,14,6.80
2016,09,21,07,15,6.80
2016,09,21,07,16,6.80
2016,09,21,07,17,6.80
2016,09,21,07,18,6.80
2016,09,21,07,19,6.80
2016,09,21,07,20,6.80
2016,09,21,07,21,6.80
2016,09,21,07,22,6.80
2016,09,21,07,23,6.80
2016,09,21,07,24,6.80
2016,09,21,07,25,6.80
2016,09,21,07,26,6.80
2016,09,21,07,27,6.80
2016,09,21,07,28,6.80
2016,09,21,07,29,6.80
2016,09,21,07,30,6.90
2016,09,21,07,31,6.90
2016,09,21,07,32,6.80
2016,09,21,07,33,6.80
2016,09,21,07,34,6.80
2016,09,21,07,35,6.90
2016,09,21,07,36,6.90
2016,09,21,07,37,6.90
2016,09,21,07,38,7.00
2016,09,21,07,39,7.00
2016,09,21,07,40,7.00
2016,09,21,07,41,7.10
2016,09,21,07,42,7.10
2016,09,21,07,43,7.10
2016,09,21,07,44,7.20
2016,09,21,07,45,7.20
2016,09,21,07,46,7.20
2016,09,21,07,47,7.20
2016,09,21,07,48,7.30
2016,09,21,07,49,7.30
2016,09,21,07,50,7.30
2016,09,21,07,51,7.30
2016,09,21,07,52,7.40
2016,09,21,07,53,7.40
2016,09,21,07,54,7.50
2016,09,21,07,55,7.50
2016,09,21,07,56,7.50
2016,09,21,07,57,7.50
2016,09,21,07,58,7.60
2016,09,21,07,59,7.60
2016,09,21,08,00,7.60
2016,09,21,08,01,7.60
2016,09,21,08,02,7.60
2016,09,21,08,03,7.60
2016,09,21,08,04,7.70
2016,09,21,08,05,7.70
2016,09,21,08,06,7.80
2016,09,21,08,07,7.80
2016,09,21,08,08,7.80
2016,09,21,08,09,7.90
2016,09,21,08,10,7.90
2016,09,21,08,11,8.00
2016,09,21,08,12,8.00
2016,09,21,08,13,8.20
2016,09,21,08,14,8.30
2016,09,21,08,15,8.40
2016,09,21,08,16,8.60
2016,09,21,08,17,8.70
2016,09,21,08,18,8.80
2016,09,21,08,19,8.90
2016,09,21,08,20,9.00
2016,09,21,08,21,9.00
2016,09,21,08,22,9.10
2016,09,21,08,23,9.10
2016,09,21,08,24,9.20
2016,09,21,08,25,9.20
2016,09,21,08,26,9.30
2016,09,21,08,27,9.40
2016,09,21,08,28,9.40
2016,09,21,08,29,9.40
2016,09,21,08,30,9.50
2016,09,21,08,31,9.50
2016,09,21,08,32,9.50
2016,09,21,08,33,9.60
2016,09,21,08,34,9.60
2016,09,21,08,35,9.70
2016,09,21,08,36,9.70
2016,09,21,08,37,9.80
2016,09,21,08,38,9.90
2016,09,21,08,39,9.90
2016,09,21,08,40,10.00
2016,09,21,08,41,10.10
2016,09,21,08,42,10.20
2016,09,21,08,43,10.30
2016,09,21,08,44,10.50
2016,09,21,08,45,10.60
2016,09,21,08,46,10.80
2016,09,21,08,47,10.90
2016,09,21,08,48,11.00
2016,09,21,08,49,11.20
2016,09,21,08,50,11.30
2016,09,21,08,51,11.40
2016,09,21,08,52,11.60
2016,09,21,08,53,11.70
2016,09,21,08,54,11.80
2016,09,21,08,55,11.80
2016,09,21,08,56,11.90
2016,09,21,08,57,12.00
2016,09,21,08,58,12.00
2016,09,21,08,59,12.10
2016,09,21,09,00,12.20
2016,09,21,09,01,12.30
2016,09,21,09,02,12.30
2016,09,21,09,03,12.50
2016,09,21,09,04,12.60
2016,09,21,09,05,12.70
2016,09,21,09,06,12.80
2016,09,21,09,07,12.90
2016,09,21,09,08,13.00
2016,09,21,09,09,13.10
2016,09,21,09,10,13.10
2016,09,21,09,11,13.30
2016,09,21,09,12,13.30
2016,09,21,09,13,13.40
2016,09,21,09,14,13.60
2016,09,21,09,15,13.60
2016,09,21,09,16,13.70
2016,09,21,09,17,13.70
2016,09,21,09,18,13.80
2016,09,21,09,19,13.80
2016,09,21,09,20,13.80
2016,09,21,09,21,13.90
2016,09,21,09,22,13.90
2016,09,21,09,23,13.90
2016,09,21,09,24,13.90
2016,09,21,09,25,14.00
2016,09,21,09,26,14.00
2016,09,21,09,27,14.10
2016,09,21,09,28,14.10
2016,09,21,09,29,14.20
2016,09,21,09,30,14.20
2016,09,21,09,31,14.20
2016,09,21,09,32,14.30
2016,09,21,09,33,14.30
2016,09,21,09,34,14.40
2016,09,21,09,35,14.50
2016,09,21,09,36,14.60
2016,09,21,09,37,14.60
2016,09,21,09,38,14.70
2016,09,21,09,39,14.80
2016,09,21,09,40,14.80
2016,09,21,09,41,14.90
2016,09,21,09,42,15.00
2016,09,21,09,43,15.00
2016,09,21,09,44,15.00
2016,09,21,09,45,15.10
2016,09,21,09,46,15.20
2016,09,21,09,47,15.20
2016,09,21,09,48,15.20
2016,09,21,09,49,15.10
2016,09,21,09,50,15.00
2016,09,21,09,51,15.00
2016,09,21,09,52,15.10
2016,09,21,09,53,15.10
2016,09,21,09,54,15.10
2016,09,21,09,55,15.10
2016,09,21,09,56,15.20
2016,09,21,09,57,15.20
2016,09,21,09,58,15.30
2016,09,21,09,59,15.40
2016,09,21,10,00,15.50
2016,09,21,10,01,15.60
2016,09,21,10,02,15.60
2016,09,21,10,03,15.70
2016,09,21,10,04,15.80
2016,09,21,10,05,16.00
2016,09,21,10,06,16.10
2016,09,21,10,07,16.10
2016,09,21,10,08,16.10
2016,09,21,10,09,16.10
2016,09,21,10,10,16.20
2016,09,21,10,11,16.10
2016,09,21,10,12,15.90
2016,09,21,10,13,15.80
2016,09,21,10,14,15.70
2016,09,21,10,15,15.60
2016,09,21,10,16,15.50
2016,09,21,10,17,15.50
2016,09,21,10,18,15.50
2016,09,21,10,19,15.50
2016,09,21,10,20,15.60
2016,09,21,10,21,15.60
2016,09,21,10,22,15.60
2016,09,21,10,23,15.60
2016,09,21,10,24,15.60
2016,09,21,10,25,15.70
2016,09,21,10,26,15.60
2016,09,21,10,27,15.60
2016,09,21,10,28,15.70
2016,09,21,10,29,15.70
2016,09,21,10,30,15.70
2016,09,21,10,31,15.70
2016,09,21,10,32,15.60
2016,09,21,10,33,15.60
2016,09,21,10,34,15.60
2016,09,21,10,35,15.60
2016,09,21,10,36,15.60
2016,09,21,10,37,15.70
2016,09,21,10,38,15.70
2016,09,21,10,39,15.80
2016,09,21,10,40,15.80
2016,09,21,10,41,15.90
2016,09,21,10,42,16.00
2016,09,21,10,43,16.10
2016,09,21,10,44,16.10
2016,09,21,10,45,16.10
2016,09,21,10,46,16.20
2016,09,21,10,47,16.20
2016,09,21,10,48,16.30
2016,09,21,10,49,16.30
2016,09,21,10,50,16.20
2016,09,21,10,51,16.20
2016,09,21,10,52,16.30
2016,09,21,10,53,16.40
2016,09,21,10,54,16.40
2016,09,21,10,55,16.50
2016,09,21,10,56,16.60
2016,09,21,10,57,16.70
2016,09,21,10,58,16.70
2016,09,21,10,59,16.80
2016,09,21,11,00,16.90
2016,09,21,11,01,17.00
2016,09,21,11,02,17.10
2016,09,21,11,03,17.30
2016,09,21,11,04,17.40
2016,09,21,11,05,17.50
2016,09,21,11,06,17.50
2016,09,21,11,07,17.40
2016,09,21,11,08,17.10
2016,09,21,11,09,16.90
2016,09,21,11,10,16.80
2016,09,21,11,11,16.70
2016,09,21,11,12,16.60
2016,09,21,11,13,16.50
2016,09,21,11,14,16.40
2016,09,21,11,15,16.40
2016,09,21,11,16,16.40
2016,09,21,11,17,16.40
2016,09,21,11,18,16.30
2016,09,21,11,19,16.30
2016,09,21,11,20,16.20
2016,09,21,11,21,16.20
2016,09,21,11,22,16.20
2016,09,21,11,23,16.20
2016,09,21,11,24,16.30
2016,09,21,11,25,16.30
2016,09,21,11,26,16.40
2016,09,21,11,27,16.50
2016,09,21,11,28,16.60
2016,09,21,11,29,16.70
2016,09,21,11,30,16.70
2016,09,21,11,31,16.80
2016,09,21,11,32,16.90
2016,09,21,11,33,17.00
2016,09,21,11,34,16.90
2016,09,21,11,35,16.90
2016,09,21,11,36,16.90
2016,09,21,11,37,16.70
2016,09,21,11,38,16.70
2016,09,21,11,39,16.70
2016,09,21,11,40,16.70
2016,09,21,11,41,16.80
2016,09,21,11,42,16.80
2016,09,21,11,43,16.80
2016,09,21,11,44,16.70
2016,09,21,11,45,16.70
2016,09,21,11,46,16.80
2016,09,21,11,47,16.80
2016,09,21,11,48,16.90
2016,09,21,11,49,17.00
2016,09,21,11,50,17.10
2016,09,21,11,51,17.20
2016,09,21,11,52,17.10
2016,09,21,11,53,17.00
2016,09,21,11,54,16.90
2016,09,21,11,55,16.80
2016,09,21,11,56,16.70
2016,09,21,11,57,16.70
2016,09,21,11,58,16.80
2016,09,21,11,59,16.90
2016,09,21,12,00,16.90
2016,09,21,12,01,17.00
2016,09,21,12,02,17.00
2016,09,21,12,03,17.00
2016,09,21,12,04,16.90
2016,09,21,12,05,16.90
2016,09,21,12,06,17.00
2016,09,21,12,07,16.90
2016,09,21,12,08,16.90
2016,09,21,12,09,16.80
2016,09,21,12,10,16.60
2016,09,21,12,11,16.40
2016,09,21,12,12,16.30
2016,09,21,12,13,16.30
2016,09,21,12,14,16.40
2016,09,21,12,15,16.40
2016,09,21,12,16,16.40
2016,09,21,12,17,16.40
2016,09,21,12,18,16.30
2016,09,21,12,19,16.30
2016,09,21,12,20,16.30
2016,09,21,12,21,16.40
2016,09,21,12,22,16.40
2016,09,21,12,23,16.50
2016,09,21,12,24,16.50
2016,09,21,12,25,16.30
2016,09,21,12,26,16.20
2016,09,21,12,27,16.10
2016,09,21,12,28,16.10
2016,09,21,12,29,16.10
2016,09,21,12,30,16.20
2016,09,21,12,31,16.30
2016,09,21,12,32,16.40
2016,09,21,12,33,16.60
2016,09,21,12,34,16.70
2016,09,21,12,35,16.70
2016,09,21,12,36,16.70
2016,09,21,12,37,16.60
2016,09,21,12,38,16.50
2016,09,21,12,39,16.30
2016,09,21,12,40,16.20
2016,09,21,12,41,16.10
2016,09,21,12,42,16.10
2016,09,21,12,43,16.10
2016,09,21,12,44,16.10
2016,09,21,12,45,16.10
2016,09,21,12,46,16.20
2016,09,21,12,47,16.30
2016,09,21,12,48,16.30
2016,09,21,12,49,16.30
2016,09,21,12,50,16.40
2016,09,21,12,51,16.60
2016,09,21,12,52,16.60
2016,09,21,12,53,16.70
2016,09,21,12,54,16.80
2016,09,21,12,55,16.90
2016,09,21,12,56,16.90
2016,09,21,12,57,17.00
2016,09,21,12,58,17.10
2016,09,21,12,59,17.20
2016,09,21,13,00,17.40
2016,09,21,13,01,17.50
2016,09,21,13,02,17.60
2016,09,21,13,03,17.60
2016,09,21,13,04,17.60
2016,09,21,13,05,17.60
2016,09,21,13,06,17.60
2016,09,21,13,07,17.60
2016,09,21,13,08,17.50
2016,09,21,13,09,17.60
2016,09,21,13,10,17.60
2016,09,21,13,11,17.60
2016,09,21,13,12,17.60
2016,09,21,13,13,17.60
2016,09,21,13,14,17.60
2016,09,21,13,15,17.60
2016,09,21,13,16,17.70
2016,09,21,13,17,17.80
2016,09,21,13,18,17.80
2016,09,21,13,19,17.80
2016,09,21,13,20,17.90
2016,09,21,13,21,17.90
2016,09,21,13,22,17.80
2016,09,21,13,23,17.80
2016,09,21,13,24,17.70
2016,09,21,13,25,17.80
2016,09,21,13,26,17.90
2016,09,21,13,27,18.00
2016,09,21,13,28,18.10
2016,09,21,13,29,18.10
2016,09,21,13,30,18.10
2016,09,21,13,31,18.20
2016,09,21,13,32,18.10
2016,09,21,13,33,18.10
2016,09,21,13,34,18.00
2016,09,21,13,35,17.90
2016,09,21,13,36,17.90
2016,09,21,13,37,17.90
2016,09,21,13,38,17.90
2016,09,21,13,39,17.90
2016,09,21,13,40,17.80
2016,09,21,13,41,17.80
2016,09,21,13,42,17.80
2016,09,21,13,43,17.70
2016,09,21,13,44,17.50
2016,09,21,13,45,17.40
2016,09,21,13,46,17.30
2016,09,21,13,47,17.30
2016,09,21,13,48,17.30
2016,09,21,13,49,17.30
2016,09,21,13,50,17.30
2016,09,21,13,51,17.30
2016,09,21,13,52,17.40
2016,09,21,13,53,17.50
2016,09,21,13,54,17.60
2016,09,21,13,55,17.70
2016,09,21,13,56,17.60
2016,09,21,13,57,17.60
2016,09,21,13,58,17.60
2016,09,21,13,59,17.70
2016,09,21,14,00,17.80
2016,09,21,14,01,17.80
2016,09,21,14,02,17.90
2016,09,21,14,03,17.90
2016,09,21,14,04,17.90
2016,09,21,14,05,17.90
2016,09,21,14,06,17.90
2016,09,21,14,07,17.90
2016,09,21,14,08,17.80
2016,09,21,14,09,17.80
2016,09,21,14,10,17.80
2016,09,21,14,11,17.80
2016,09,21,14,12,17.90
2016,09,21,14,13,17.90
2016,09,21,14,14,17.90
2016,09,21,14,15,17.90
2016,09,21,14,16,17.90
2016,09,21,14,17,17.90
2016,09,21,14,18,17.90
2016,09,21,14,19,17.80
2016,09,21,14,20,17.80
2016,09,21,14,21,17.90
2016,09,21,14,22,18.00
2016,09,21,14,23,18.10
2016,09,21,14,24,18.20
2016,09,21,14,25,18.20
2016,09,21,14,26,18.20
2016,09,21,14,27,18.20
2016,09,21,14,28,18.20
2016,09,21,14,29,18.20
2016,09,21,14,30,18.20
2016,09,21,14,31,18.20
2016,09,21,14,32,18.20
2016,09,21,14,33,18.40
2016,09,21,14,34,18.50
2016,09,21,14,35,18.50
2016,09,21,14,36,18.50
2016,09,21,14,37,18.60
2016,09,21,14,38,18.60
2016,09,21,14,39,18.60
2016,09,21,14,40,18.70
2016,09,21,14,41,18.70
2016,09,21,14,42,18.80
2016,09,21,14,43,18.80
2016,09,21,14,44,18.70
2016,09,21,14,45,18.60
2016,09,21,14,46,18.50
2016,09,21,14,47,18.50
2016,09,21,14,48,18.50
2016,09,21,14,49,18.40
2016,09,21,14,50,18.50
2016,09,21,14,51,18.50
2016,09,21,14,52,18.60
2016,09,21,14,53,18.70
2016,09,21,14,54,18.70
2016,09,21,14,55,18.70
2016,09,21,14,56,18.60
2016,09,21,14,57,18.50
2016,09,21,14,58,18.40
2016,09,21,14,59,18.30
2016,09,21,15,00,18.30
2016,09,21,15,01,18.30
2016,09,21,15,02,18.40
2016,09,21,15,03,18.40
2016,09,21,15,04,18.50
2016,09,21,15,05,18.60
2016,09,21,15,06,18.70
2016,09,21,15,07,18.70
2016,09,21,15,08,18.80
2016,09,21,15,09,18.90
2016,09,21,15,10,18.90
2016,09,21,15,11,18.90
2016,09,21,15,12,18.80
2016,09,21,15,13,18.70
2016,09,21,15,14,18.60
2016,09,21,15,15,18.60
2016,09,21,15,16,18.60
2016,09,21,15,17,18.50
2016,09,21,15,18,18.50
2016,09,21,15,19,18.50
2016,09,21,15,20,18.40
2016,09,21,15,21,18.30
2016,09,21,15,22,18.20
2016,09,21,15,23,18.20
2016,09,21,15,24,18.20
2016,09,21,15,25,18.20
2016,09,21,15,26,18.30
2016,09,21,15,27,18.40
2016,09,21,15,28,18.50
2016,09,21,15,29,18.50
2016,09,21,15,30,18.50
2016,09,21,15,31,18.60
2016,09,21,15,32,18.60
2016,09,21,15,33,18.60
2016,09,21,15,34,18.60
2016,09,21,15,35,18.70
2016,09,21,15,36,18.70
2016,09,21,15,37,18.70
2016,09,21,15,38,18.70
2016,09,21,15,39,18.70
2016,09,21,15,40,18.70
2016,09,21,15,41,18.80
2016,09,21,15,42,18.80
2016,09,21,15,43,18.80
2016,09,21,15,44,18.90
2016,09,21,15,45,18.90
2016,09,21,15,46,18.90
2016,09,21,15,47,18.80
2016,09,21,15,48,18.80
2016,09,21,15,49,18.70
2016,09,21,15,50,18.70
2016,09,21,15,51,18.80
2016,09,21,15,52,18.80
2016,09,21,15,53,18.90
2016,09,21,15,54,18.90
2016,09,21,15,55,18.90
2016,09,21,15,56,18.90
2016,09,21,15,57,18.90
2016,09,21,15,58,18.90
2016,09,21,15,59,18.90
2016,09,21,16,00,18.90
2016,09,21,16,01,18.90
2016,09,21,16,02,18.90
2016,09,21,16,03,18.80
2016,09,21,16,04,18.70
2016,09,21,16,05,18.70
2016,09,21,16,06,18.70
2016,09,21,16,07,18.60
2016,09,21,16,08,18.60
2016,09,21,16,09,18.60
2016,09,21,16,10,18.60
2016,09,21,16,11,18.60
2016,09,21,16,12,18.60
2016,09,21,16,13,18.60
2016,09,21,16,14,18.60
2016,09,21,16,15,18.50
2016,09,21,16,16,18.50
2016,09,21,16,17,18.60
2016,09,21,16,18,18.50
2016,09,21,16,19,18.50
2016,09,21,16,20,18.50
2016,09,21,16,21,18.50
2016,09,21,16,22,18.50
2016,09,21,16,23,18.50
2016,09,21,16,24,18.40
2016,09,21,16,25,18.40
2016,09,21,16,26,18.40
2016,09,21,16,27,18.30
2016,09,21,16,28,18.30
2016,09,21,16,29,18.30
2016,09,21,16,30,18.40
2016,09,21,16,31,18.40
2016,09,21,16,32,18.40
2016,09,21,16,33,18.40
2016,09,21,16,34,18.40
2016,09,21,16,35,18.40
2016,09,21,16,36,18.40
2016,09,21,16,37,18.30
2016,09,21,16,38,18.40
2016,09,21,16,39,18.30
2016,09,21,16,40,18.30
2016,09,21,16,41,18.40
2016,09,21,16,42,18.40
2016,09,21,16,43,18.40
2016,09,21,16,44,18.40
2016,09,21,16,45,18.40
2016,09,21,16,46,18.30
2016,09,21,16,47,18.40
2016,09,21,16,48,18.40
2016,09,21,16,49,18.40
2016,09,21,16,50,18.40
2016,09,21,16,51,18.40
2016,09,21,16,52,18.50
2016,09,21,16,53,18.50
2016,09,21,16,54,18.60
2016,09,21,16,55,18.60
2016,09,21,16,56,18.60
2016,09,21,16,57,18.60
2016,09,21,16,58,18.70
2016,09,21,16,59,18.70
2016,09,21,17,00,18.70
2016,09,21,17,01,18.70
2016,09,21,17,02,18.80
2016,09,21,17,03,18.80
2016,09,21,17,04,18.90
2016,09,21,17,05,18.90
2016,09,21,17,06,19.00
2016,09,21,17,07,19.10
2016,09,21,17,08,19.10
2016,09,21,17,09,19.10
2016,09,21,17,10,19.00
2016,09,21,17,11,18.90
2016,09,21,17,12,18.90
2016,09,21,17,13,18.90
2016,09,21,17,14,18.90
2016,09,21,17,15,18.90
2016,09,21,17,16,18.90
2016,09,21,17,17,18.80
2016,09,21,17,18,18.80
2016,09,21,17,19,18.70
2016,09,21,17,20,18.70
2016,09,21,17,21,18.70
2016,09,21,17,22,18.70
2016,09,21,17,23,18.70
2016,09,21,17,24,18.70
2016,09,21,17,25,18.60
2016,09,21,17,26,18.60
2016,09,21,17,27,18.60
2016,09,21,17,28,18.60
2016,09,21,17,29,18.50
2016,09,21,17,30,18.50
2016,09,21,17,31,18.50
2016,09,21,17,32,18.50
2016,09,21,17,33,18.60
2016,09,21,17,34,18.60
2016,09,21,17,35,18.50
2016,09,21,17,36,18.50
2016,09,21,17,37,18.50
2016,09,21,17,38,18.50
2016,09,21,17,39,18.50
2016,09,21,17,40,18.50
2016,09,21,17,41,18.50
2016,09,21,17,42,18.50